EW1033 Weather Reports


Display with metric or nautical units.
time (UTC)temp
F
wind
direction
speed
MPH
gust
MPH
rain 1hr
in
rain 24hr
in
rain mn
in
humidity
%
barometer
mb
20260904064524 78 0.0 0.0 0.00 0.00 0.00 67 1008.6
20260904063028 78 0.0 0.0 0.00 0.00 0.00 67 1008.7
20260904061528 78 0.0 0.0 0.00 0.00 0.00 67 1008.6
20260904060025 79 0.0 0.0 0.00 0.00 0.00 65 1008.5
20260904054521 80 0.0 0.0 0.00 0.00 0.00 64 1008.4
20260904053040 80 0.0 0.0 0.00 0.00 0.00 64 1008.3
20260904051534 80 0.0 0.0 0.00 0.00 0.00 63 1008.3
20260904050024 81 0.0 0.0 0.00 0.00 0.00 62 1008.6
20260904044522 81 0.0 0.0 0.00 0.00 0.00 62 1008.5
20260904043025 81 0.0 0.0 0.00 0.00 0.00 61 1008.5
20260904041517 82 0.0 0.0 0.00 0.00 0.00 60 1008.5
20260904040017 82 0.0 0.0 0.00 0.00 0.00 59 1008.5
20260904034516 83 0.0 0.0 0.00 0.00 0.00 58 1008.4
20260904033015 84 0.0 0.0 0.00 0.00 0.00 56 1008.3
20260904031524 84 0.0 0.0 0.00 0.00 0.00 56 1008.0
20260904030014 84 0.0 0.0 0.00 0.00 0.00 56 1007.7
20260904024513 84 0.0 0.0 0.00 0.00 0.00 56 1007.6
20260904023012 84 0.0 0.0 0.00 0.00 0.00 56 1007.4
20260904021521 84 0.0 0.0 0.00 0.00 0.00 56 1007.2
20260904020012 84 0.0 0.0 0.00 0.00 0.00 56 1007.1
20260904014510 85 0.0 0.0 0.00 0.00 0.00 55 1006.7
20260904013012 85 0.0 0.0 0.00 0.00 0.00 55 1006.5
20260904011511 86 0.0 0.0 0.00 0.00 0.00 54 1006.2
20260904010009 88 0.0 0.0 0.00 0.00 0.00 51 1006.1
20260904004508 89 0.0 0.0 0.00 0.00 0.00 50 1006.2
20260904003007 89 0.0 0.0 0.00 0.00 0.00 46 1006.0
20260904001506 90 0.0 0.0 0.00 0.00 0.00 47 1005.9
20260904000007 90 0.0 0.0 0.00 0.00 0.00 49 1006.1
20260903234505 91 0.0 0.0 0.00 0.00 0.00 45 1006.0
20260903233008 91 0.0 0.0 0.00 0.00 0.00 43 1006.0
20260903231505 91 0.0 0.0 0.00 0.00 0.00 43 1005.8
20260903230005 91 0.0 0.0 0.00 0.00 0.00 43 1006.0
20260903224510 93 0.0 0.0 0.00 0.00 0.00 42 1005.9
20260903223003 93 0.0 0.0 0.00 0.00 0.00 40 1005.9
20260903221502 92 0.0 0.0 0.00 0.00 0.00 42 1006.0
20260903220104 92 0.0 0.0 0.00 0.00 0.00 41 1006.2
20260903214609 93 0.0 0.0 0.00 0.00 0.00 39 1006.4
20260903213054 94 0.0 0.0 0.00 0.00 0.00 39 1006.5
20260903211600 94 0.0 0.0 0.00 0.00 0.00 40 1006.7
20260903210049 93 0.0 0.0 0.00 0.00 0.00 41 1007.0
20260903204546 92 0.0 0.0 0.00 0.00 0.00 42 1007.2
20260903203043 91 0.0 0.0 0.00 0.00 0.00 43 1007.3
20260903201545 90 0.0 0.0 0.00 0.00 0.00 45 1007.7
20260903200037 91 0.0 0.0 0.00 0.00 0.00 44 1008.0
20260903194533 90 0.0 0.0 0.00 0.00 0.00 45 1008.2
20260903193032 90 0.0 0.0 0.00 0.00 0.00 45 1008.5
20260903191531 89 0.0 0.0 0.00 0.00 0.00 47 1008.7
20260903190026 88 0.0 0.0 0.00 0.00 0.00 48 1009.0
20260903184524 88 0.0 0.0 0.00 0.00 0.00 48 1009.3
20260903183023 88 0.0 0.0 0.00 0.00 0.00 48 1009.5
20260903181522 88 0.0 0.0 0.00 0.00 0.00 49 1009.7
20260903180025 88 0.0 0.0 0.00 0.00 0.00 49 1009.9
20260903174516 87 0.0 0.0 0.00 0.00 0.00 52 1010.0
20260903173013 86 0.0 0.0 0.00 0.00 0.00 53 1010.2
20260903171511 85 0.0 0.0 0.00 0.00 0.00 54 1010.2
20260903170010 85 0.0 0.0 0.00 0.00 0.00 54 1010.2
20260903164505 84 0.0 0.0 0.00 0.00 0.00 56 1010.2
20260903163002 83 0.0 0.0 0.00 0.00 0.00 59 1010.2
20260903161502 83 0.0 0.0 0.00 0.00 0.00 59 1010.3
20260903160001 83 0.0 0.0 0.00 0.00 0.00 60 1010.3
20260903154601 82 0.0 0.0 0.00 0.00 0.00 60 1010.4
20260903153107 81 0.0 0.0 0.00 0.00 0.00 62 1010.3
20260903151554 81 0.0 0.0 0.00 0.00 0.00 63 1010.4
20260903144549 81 0.0 0.0 0.00 0.00 0.00 64 1010.3
20260903143057 80 0.0 0.0 0.00 0.00 0.00 66 1010.2
20260903141546 80 0.0 0.0 0.00 0.00 0.00 67 1010.4
20260903140043 79 0.0 0.0 0.00 0.00 0.00 68 1010.2
20260903134540 79 0.0 0.0 0.00 0.00 0.00 68 1010.2
20260903133039 79 0.0 0.0 0.00 0.00 0.00 67 1010.0
20260903131537 79 0.0 0.0 0.00 0.00 0.00 66 1010.0
20260903130034 79 0.0 0.0 0.00 0.00 0.00 66 1009.7
20260903124535 79 0.0 0.0 0.00 0.00 0.00 65 1009.7
20260903123032 78 0.0 0.0 0.00 0.00 0.00 66 1009.4
20260903121531 79 0.0 0.0 0.00 0.00 0.00 67 1009.3
20260903120035 79 0.0 0.0 0.00 0.00 0.00 67 1009.2
20260903114531 79 0.0 0.0 0.00 0.00 0.00 67 1009.1
20260903113030 79 0.0 0.0 0.00 0.00 0.00 67 1009.1
20260903111532 79 0.0 0.0 0.00 0.00 0.00 66 1009.1
20260903110027 79 0.0 0.0 0.00 0.00 0.00 65 1009.2
20260903104525 79 0.0 0.0 0.00 0.00 0.00 65 1009.2
20260903103023 79 0.0 0.0 0.00 0.00 0.00 66 1009.4
20260903101527 79 0.0 0.0 0.00 0.00 0.00 66 1009.4
20260903100021 79 0.0 0.0 0.00 0.00 0.00 66 1009.6
20260903094520 80 0.0 0.0 0.00 0.00 0.00 65 1009.5
20260903093027 80 0.0 0.0 0.00 0.00 0.00 65 1009.5
20260903091529 80 0.0 0.0 0.00 0.00 0.00 65 1009.6
20260903090023 80 0.0 0.0 0.00 0.00 0.00 65 1009.5
20260903084536 80 0.0 0.0 0.00 0.00 0.00 64 1009.5
20260903083014 80 0.0 0.0 0.00 0.00 0.00 64 1009.6
20260903081517 80 0.0 0.0 0.00 0.00 0.00 65 1009.7
20260903080012 80 0.0 0.0 0.00 0.00 0.00 63 1009.5
20260903074509 81 0.0 0.0 0.00 0.00 0.00 62 1009.6
20260903073007 81 0.0 0.0 0.00 0.00 0.00 61 1009.6
20260903071505 82 0.0 0.0 0.00 0.00 0.00 61 1009.7
20260903070003 82 0.0 0.0 0.00 0.00 0.00 60 1009.5